SAS69J ENZV-ENGM

Flight info

Callsign SAS69J
Flight time 0h 45m
Altitude 31000
Route UPLEV DCT OSKOM DCT RIPAM
Aircraft E195/M-SDE3FGIRWY/EB1

Departure

Time 2026-04-16 01:30
Airport Stavanger Airport, Sola (ENZV)

Arrival

Time 2026-04-16 02:16
Airport Oslo-Gardermoen International Airport (ENGM)
Time Latitude Longitude Altitude Speed Heading
2026-04-16 01:02 58.88316 5.63069 29 ft 0 kts 255°
2026-04-16 01:18 58.88316 5.63068 29 ft 0 kts 255°
2026-04-16 01:20 58.88316 5.63073 29 ft 2 kts 255°
2026-04-16 01:20 58.88320 5.63100 29 ft 2 kts 255°
2026-04-16 01:20 58.88324 5.63129 29 ft 2 kts 255°
2026-04-16 01:20 58.88328 5.63156 29 ft 2 kts 255°
2026-04-16 01:21 58.88332 5.63184 29 ft 2 kts 255°
2026-04-16 01:21 58.88336 5.63211 30 ft 2 kts 255°
2026-04-16 01:21 58.88338 5.63224 30 ft 0 kts 255°
2026-04-16 01:23 58.88329 5.63212 30 ft 4 kts 176°
2026-04-16 01:24 58.88297 5.63253 30 ft 6 kts 139°
2026-04-16 01:24 58.88244 5.63293 30 ft 10 kts 168°
2026-04-16 01:24 58.88157 5.63289 29 ft 14 kts 198°
2026-04-16 01:24 58.88073 5.63183 27 ft 15 kts 223°
2026-04-16 01:25 58.88002 5.63021 26 ft 15 kts 245°
2026-04-16 01:25 58.87994 5.62791 22 ft 19 kts 285°
2026-04-16 01:25 58.88022 5.62607 22 ft 9 kts 280°
2026-04-16 01:25 58.87988 5.62539 22 ft 7 kts 204°
2026-04-16 01:26 58.87937 5.62505 22 ft 8 kts 199°
2026-04-16 01:26 58.87893 5.62440 21 ft 9 kts 253°
2026-04-16 01:26 58.87906 5.62287 19 ft 13 kts 286°
2026-04-16 01:26 58.87932 5.62104 19 ft 14 kts 285°
2026-04-16 01:27 58.87967 5.61903 17 ft 17 kts 291°
2026-04-16 01:27 58.88004 5.61670 16 ft 18 kts 289°
2026-04-16 01:27 58.88041 5.61418 14 ft 21 kts 282°
2026-04-16 01:27 58.88078 5.61146 12 ft 18 kts 285°
2026-04-16 01:28 58.88113 5.60925 12 ft 15 kts 284°
2026-04-16 01:28 58.88141 5.60734 12 ft 11 kts 287°
2026-04-16 01:28 58.88164 5.60603 11 ft 8 kts 312°
2026-04-16 01:28 58.88180 5.60540 10 ft 1 kts 188°
2026-04-16 01:29 58.88172 5.60556 10 ft 1 kts 115°
2026-04-16 01:29 58.88171 5.60561 10 ft 0 kts 112°
2026-04-16 01:29 58.88170 5.60567 11 ft 2 kts 112°
2026-04-16 01:30 58.88104 5.60955 13 ft 67 kts 106°
2026-04-16 01:30 58.87910 5.62231 19 ft 130 kts 108°
2026-04-16 01:30 58.87656 5.64049 457 ft 142 kts 106°
2026-04-16 01:30 58.87384 5.65900 1057 ft 149 kts 109°
2026-04-16 01:31 58.87145 5.67487 2402 ft 113 kts 110°
2026-04-16 01:31 58.86908 5.69085 2810 ft 140 kts 111°
2026-04-16 01:31 58.86629 5.71026 3238 ft 170 kts 112°
2026-04-16 01:31 58.86248 5.73333 3815 ft 191 kts 114°
2026-04-16 01:32 58.85804 5.75914 4413 ft 216 kts 112°
2026-04-16 01:32 58.85376 5.78868 4966 ft 245 kts 110°
2026-04-16 01:32 58.84873 5.82052 5912 ft 255 kts 111°
2026-04-16 01:32 58.84367 5.85388 6786 ft 266 kts 112°
2026-04-16 01:33 58.83849 5.88635 8215 ft 253 kts 111°
2026-04-16 01:33 58.83540 5.91938 9183 ft 262 kts 89°
2026-04-16 01:33 58.84203 5.95286 9962 ft 283 kts 54°
2026-04-16 01:33 58.85811 5.97535 10755 ft 297 kts 19°
2026-04-16 01:34 58.87838 5.98300 11618 ft 302 kts
2026-04-16 01:34 58.89873 5.97514 12472 ft 303 kts 329°
2026-04-16 01:34 58.91466 5.94882 13046 ft 311 kts 301°
2026-04-16 01:34 58.92471 5.91248 13428 ft 327 kts 292°
2026-04-16 01:35 58.93426 5.87075 14045 ft 339 kts 290°
2026-04-16 01:35 58.94322 5.82928 14847 ft 343 kts 290°
2026-04-16 01:35 58.95221 5.78662 15704 ft 346 kts 289°
2026-04-16 01:35 58.96412 5.74592 16505 ft 355 kts 310°
2026-04-16 01:36 58.98430 5.71834 17227 ft 365 kts 338°
2026-04-16 01:36 59.00896 5.71022 17943 ft 370 kts
2026-04-16 01:36 59.03351 5.72355 18655 ft 370 kts 31°
2026-04-16 01:36 59.05576 5.74847 19436 ft 373 kts 30°
2026-04-16 01:37 59.07892 5.77145 20240 ft 376 kts 30°
2026-04-16 01:37 59.09900 5.80161 20976 ft 371 kts 54°
2026-04-16 01:37 59.11084 5.84505 21657 ft 366 kts 78°
2026-04-16 01:37 59.11362 5.89357 22357 ft 364 kts 91°
2026-04-16 01:38 59.11383 5.94292 23049 ft 367 kts 92°
2026-04-16 01:38 59.11358 5.99223 23717 ft 370 kts 93°
2026-04-16 01:38 59.11314 6.04237 24385 ft 373 kts 93°
2026-04-16 01:38 59.11261 6.09275 25019 ft 377 kts 93°
2026-04-16 01:39 59.11205 6.14349 25627 ft 381 kts 93°
2026-04-16 01:39 59.11144 6.19471 26238 ft 385 kts 93°
2026-04-16 01:39 59.11081 6.24659 26840 ft 389 kts 93°
2026-04-16 01:39 59.11014 6.29906 27432 ft 393 kts 93°
2026-04-16 01:40 59.10944 6.35235 27977 ft 398 kts 93°
2026-04-16 01:40 59.10872 6.40585 28537 ft 401 kts 93°
2026-04-16 01:40 59.10796 6.46047 29101 ft 405 kts 93°
2026-04-16 01:40 59.10717 6.51564 29633 ft 409 kts 93°
2026-04-16 01:41 59.10636 6.57097 30165 ft 412 kts 93°
2026-04-16 01:41 59.10552 6.62627 30671 ft 416 kts 92°
2026-04-16 01:41 59.10465 6.68231 30992 ft 413 kts 94°
2026-04-16 01:41 59.10373 6.73919 31031 ft 428 kts 94°
2026-04-16 01:42 59.10278 6.79714 31045 ft 442 kts 94°
2026-04-16 01:42 59.10220 6.85772 31042 ft 454 kts 89°
2026-04-16 01:42 59.10590 6.91859 31049 ft 455 kts 81°
2026-04-16 01:43 59.11713 7.04011 31039 ft 453 kts 81°
2026-04-16 01:43 59.12781 7.16088 31049 ft 453 kts 81°
2026-04-16 01:44 59.13829 7.28105 31063 ft 452 kts 81°
2026-04-16 01:44 59.14861 7.40079 31071 ft 454 kts 81°
2026-04-16 01:45 59.15899 7.52251 31093 ft 461 kts 80°
2026-04-16 01:45 59.16938 7.64594 31101 ft 461 kts 80°
2026-04-16 01:46 59.17927 7.76463 31094 ft 461 kts 81°
2026-04-16 01:46 59.18935 7.88721 31115 ft 459 kts 81°
2026-04-16 01:47 59.19924 8.00885 31131 ft 458 kts 81°
2026-04-16 01:47 59.20890 8.12907 31133 ft 458 kts 80°
2026-04-16 01:48 59.21863 8.25175 31129 ft 458 kts 80°
2026-04-16 01:48 59.22829 8.37496 31152 ft 458 kts 80°
2026-04-16 01:49 59.23777 8.49753 31185 ft 461 kts 80°
2026-04-16 01:49 59.24703 8.61886 31180 ft 446 kts 80°
2026-04-16 01:50 59.25561 8.73252 31178 ft 446 kts 81°
2026-04-16 01:50 59.26011 8.79277 30767 ft 450 kts 80°
2026-04-16 01:50 59.26453 8.85236 30199 ft 444 kts 80°
2026-04-16 01:50 59.26886 8.91104 29615 ft 438 kts 80°
2026-04-16 01:51 59.27319 8.96994 29034 ft 433 kts 80°
2026-04-16 01:51 59.27736 9.02718 28464 ft 428 kts 80°
2026-04-16 01:51 59.28149 9.08423 27908 ft 425 kts 80°
2026-04-16 01:51 59.28554 9.14063 27373 ft 422 kts 80°
2026-04-16 01:52 59.28961 9.19738 26823 ft 420 kts 80°
2026-04-16 01:52 59.29361 9.25381 26280 ft 417 kts 80°
2026-04-16 01:52 59.29754 9.30939 25740 ft 414 kts 80°
2026-04-16 01:52 59.30138 9.36423 25196 ft 407 kts 80°
2026-04-16 01:53 59.30515 9.41817 24669 ft 399 kts 80°
2026-04-16 01:53 59.30883 9.47137 24144 ft 391 kts 80°
2026-04-16 01:53 59.31241 9.52329 23627 ft 384 kts 80°
2026-04-16 01:53 59.31589 9.57417 23124 ft 377 kts 80°
2026-04-16 01:54 59.31934 9.62474 22625 ft 371 kts 80°
2026-04-16 01:54 59.32268 9.67412 22139 ft 364 kts 81°
2026-04-16 01:54 59.32661 9.72219 21651 ft 356 kts 71°
2026-04-16 01:54 59.33856 9.76331 21213 ft 342 kts 44°
2026-04-16 01:55 59.35590 9.79360 20744 ft 335 kts 38°
2026-04-16 01:55 59.37358 9.82229 20286 ft 330 kts 37°
2026-04-16 01:55 59.39132 9.85076 19848 ft 327 kts 38°
2026-04-16 01:55 59.40885 9.87879 19421 ft 326 kts 38°
2026-04-16 01:56 59.42616 9.90647 18997 ft 325 kts 38°
2026-04-16 01:56 59.44354 9.93425 18572 ft 323 kts 38°
2026-04-16 01:56 59.46086 9.96199 18156 ft 322 kts 38°
2026-04-16 01:56 59.47807 9.98957 17743 ft 320 kts 38°
2026-04-16 01:57 59.49526 10.01715 17323 ft 319 kts 38°
2026-04-16 01:57 59.51235 10.04462 16902 ft 318 kts 38°
2026-04-16 01:57 59.52943 10.07211 16479 ft 316 kts 38°
2026-04-16 01:57 59.54631 10.09931 16059 ft 315 kts 39°
2026-04-16 01:58 59.56323 10.12660 15645 ft 314 kts 39°
2026-04-16 01:58 59.57987 10.15350 15231 ft 313 kts 39°
2026-04-16 01:58 59.59665 10.18065 14824 ft 311 kts 39°
2026-04-16 01:58 59.61327 10.20756 14415 ft 310 kts 39°
2026-04-16 01:59 59.62973 10.23424 14025 ft 305 kts 40°
2026-04-16 01:59 59.64597 10.26059 13627 ft 300 kts 40°
2026-04-16 01:59 59.66199 10.28662 13232 ft 296 kts 40°
2026-04-16 01:59 59.67760 10.31201 12847 ft 291 kts 40°
2026-04-16 02:00 59.69310 10.33724 12462 ft 287 kts 40°
2026-04-16 02:00 59.70815 10.36178 12091 ft 282 kts 40°
2026-04-16 02:00 59.72330 10.38615 11709 ft 279 kts 35°
2026-04-16 02:00 59.74139 10.39802 11374 ft 275 kts 359°
2026-04-16 02:01 59.75900 10.38784 11278 ft 262 kts 326°
2026-04-16 02:01 59.77339 10.36665 11262 ft 261 kts 321°
2026-04-16 02:01 59.78770 10.34378 11256 ft 264 kts 320°
2026-04-16 02:01 59.80177 10.32059 11252 ft 265 kts 320°
2026-04-16 02:02 59.81569 10.29725 11245 ft 265 kts 320°
2026-04-16 02:02 59.83160 10.27924 11266 ft 264 kts 339°
2026-04-16 02:02 59.84893 10.26632 11262 ft 266 kts 340°
2026-04-16 02:02 59.86614 10.25357 11247 ft 265 kts 340°
2026-04-16 02:03 59.88327 10.24089 11251 ft 266 kts 340°
2026-04-16 02:03 59.90050 10.22815 11251 ft 266 kts 339°
2026-04-16 02:03 59.91799 10.21578 11256 ft 266 kts 349°
2026-04-16 02:04 59.95474 10.21277 11268 ft 266 kts
2026-04-16 02:04 59.97318 10.21237 11265 ft 266 kts
2026-04-16 02:04 59.99171 10.21271 11244 ft 265 kts 11°
2026-04-16 02:04 60.00777 10.22797 11274 ft 259 kts 48°
2026-04-16 02:05 60.01602 10.25837 11316 ft 254 kts 84°
2026-04-16 02:05 60.01576 10.29350 11144 ft 254 kts 97°
2026-04-16 02:05 60.01366 10.32833 10712 ft 257 kts 99°
2026-04-16 02:05 60.01127 10.36129 10247 ft 258 kts 100°
2026-04-16 02:06 60.00837 10.39816 9851 ft 255 kts 100°
2026-04-16 02:06 60.00591 10.42829 9549 ft 251 kts 100°
2026-04-16 02:06 60.00281 10.46526 9182 ft 247 kts 101°
2026-04-16 02:06 60.00000 10.49855 8859 ft 242 kts 101°
2026-04-16 02:07 59.99721 10.53116 8554 ft 238 kts 101°
2026-04-16 02:07 59.99444 10.56343 8250 ft 235 kts 101°
2026-04-16 02:07 59.99169 10.59526 7936 ft 231 kts 101°
2026-04-16 02:07 59.98897 10.62670 7632 ft 229 kts 101°
2026-04-16 02:08 59.98629 10.65756 7341 ft 227 kts 102°
2026-04-16 02:08 59.98357 10.68872 7043 ft 227 kts 102°
2026-04-16 02:08 59.98088 10.71954 6751 ft 225 kts 102°
2026-04-16 02:08 59.97819 10.75026 6459 ft 224 kts 102°
2026-04-16 02:09 59.97551 10.78083 6159 ft 222 kts 102°
2026-04-16 02:09 59.97495 10.81132 5872 ft 223 kts 81°
2026-04-16 02:09 59.97848 10.84073 5646 ft 218 kts 79°
2026-04-16 02:09 59.98204 10.86959 5366 ft 215 kts 79°
2026-04-16 02:10 59.98561 10.89853 5085 ft 212 kts 79°
2026-04-16 02:10 59.98914 10.92707 4804 ft 209 kts 79°
2026-04-16 02:10 59.99371 10.95363 4588 ft 205 kts 57°
2026-04-16 02:10 60.00549 10.96978 4312 ft 207 kts 23°
2026-04-16 02:11 60.01891 10.97827 4067 ft 201 kts 20°
2026-04-16 02:11 60.03191 10.98597 3905 ft 187 kts 20°
2026-04-16 02:11 60.04394 10.99295 3670 ft 177 kts 20°
2026-04-16 02:11 60.05552 10.99960 3439 ft 167 kts 20°
2026-04-16 02:12 60.06602 11.00557 3206 ft 149 kts 21°
2026-04-16 02:12 60.07556 11.01103 2979 ft 138 kts 21°
2026-04-16 02:12 60.08473 11.01630 2807 ft 138 kts 20°
2026-04-16 02:12 60.09398 11.02161 2635 ft 139 kts 20°
2026-04-16 02:13 60.10318 11.02686 2453 ft 138 kts 19°
2026-04-16 02:13 60.11158 11.03163 2276 ft 138 kts 19°
2026-04-16 02:13 60.12025 11.03659 2093 ft 136 kts 19°
2026-04-16 02:13 60.12928 11.04176 1903 ft 135 kts 18°
2026-04-16 02:14 60.13804 11.04678 1716 ft 134 kts 18°
2026-04-16 02:14 60.14675 11.05179 1531 ft 132 kts 18°
2026-04-16 02:14 60.15555 11.05684 1346 ft 132 kts 17°
2026-04-16 02:14 60.16425 11.06184 1163 ft 131 kts 17°
2026-04-16 02:15 60.17307 11.06691 979 ft 131 kts 16°
2026-04-16 02:15 60.18183 11.07196 796 ft 130 kts 16°
2026-04-16 02:15 60.19040 11.07680 688 ft 127 kts 15°
2026-04-16 02:15 60.19776 11.08109 686 ft 88 kts 15°
2026-04-16 02:16 60.20196 11.08400 686 ft 39 kts 40°
2026-04-16 02:16 60.20246 11.08685 686 ft 15 kts 110°
2026-04-16 02:16 60.20174 11.08738 686 ft 11 kts 198°
2026-04-16 02:16 60.20090 11.08685 686 ft 13 kts 197°
2026-04-16 02:17 60.19992 11.08625 686 ft 15 kts 196°
2026-04-16 02:17 60.19886 11.08569 686 ft 16 kts 194°
2026-04-16 02:17 60.19773 11.08506 686 ft 17 kts 196°
2026-04-16 02:17 60.19655 11.08431 686 ft 14 kts 198°
2026-04-16 02:18 60.19579 11.08395 686 ft 9 kts 173°
2026-04-16 02:18 60.19541 11.08499 686 ft 10 kts 106°
2026-04-16 02:18 60.19522 11.08638 686 ft 11 kts 105°
2026-04-16 02:18 60.19501 11.08785 686 ft 12 kts 106°
2026-04-16 02:19 60.19478 11.08943 686 ft 11 kts 106°
2026-04-16 02:19 60.19457 11.09086 686 ft 7 kts 106°
2026-04-16 02:19 60.19449 11.09148 686 ft 1 kts 87°
2026-04-16 02:19 60.19462 11.09167 686 ft 3 kts 27°
2026-04-16 02:20 60.19483 11.09186 686 ft 2 kts 20°
2026-04-16 02:20 60.19494 11.09193 686 ft 1 kts 17°
2026-04-16 02:20 60.19498 11.09196 686 ft 1 kts 17°
2026-04-16 02:20 60.19499 11.09196 686 ft 0 kts 17°